Home > Time Zones > World Clock > Weather > Togo > Lome > Past weeks

Flag for Togo Weather past 2 weeks in Lome, Togo

Now
84 °F

Passing clouds.


Feels Like: 96 °F
Forecast: N/A
Wind: 13 mph from Southwest

Location: Lome Airport

Current Time: May 22, 2015 at 7:35:47 PM

Latest Report: May 22, 2015 at 7:00 PM


Visibility: N/A

Pressure: 29.89 "Hg

Humidity: 84%

Dew point: 79 °F

Location of LomeLocation

Historic Weather in Lome — Graph

°F

Lome temperature yesterday

Maximum temperature yesterday: 91 °F (at 12:00 PM)
Minimum temperature yesterday: 77 °F (at 6:00 AM)
Average temperature yesterday: 85 °F

Past Weeks' High & Low Weather Summary

 TemperatureHumidityPressure
High91 °F (May 8, 11:00 AM)100% (May 12, 3:00 AM)29.98 "Hg (May 12, 3:00 AM)
Low75 °F (May 14, 12:00 AM)59% (May 9, 11:00 AM)29.80 "Hg (May 10, 3:30 PM)
Average85 °F79%29.88 "Hg
* Reported May 7 6:00 PM — May 22 6:00 PM, Lome, Weather by CustomWeather, © 2015

Note: Actual official high and low records may vary slightly from our data, if they occured in-between our weather recording intervals... More about our weather records

Advertising

Lome weather history for previous 24 hours

 ConditionsComfort  
Time TempWeatherWind HumidityBarometerVisibility
6:00 PM
Fri, May 22
86 °FPassing clouds.12 mph79%29.86 "HgN/A
5:00 PM86 °FPassing clouds.16 mph79%29.86 "HgN/A
4:00 PM88 °FPassing clouds.15 mph75%29.86 "HgN/A
3:00 PM91 °FPassing clouds.15 mph67%29.86 "HgN/A
2:00 PM90 °FPassing clouds.17 mph75%29.86 "HgN/A
1:00 PM91 °FScattered clouds.13 mph63%29.89 "HgN/A
12:00 PM91 °FScattered clouds.12 mph67%29.89 "HgN/A
11:00 AM90 °FScattered clouds.12 mph71%29.95 "HgN/A
10:00 AM88 °FScattered clouds.13 mph75%29.95 "HgN/A
9:00 AM88 °FScattered clouds.6 mph70%29.98 "HgN/A
8:00 AM86 °FScattered clouds.6 mph79%29.95 "HgN/A
7:00 AM82 °FPassing clouds.1 mph89%29.92 "HgN/A
6:00 AM82 °FPassing clouds.2 mph89%29.92 "Hg5 mi
5:00 AM82 °FPassing clouds.1 mph89%29.89 "Hg5 mi
4:00 AM82 °FPassing clouds.3 mph89%29.89 "HgN/A
3:00 AM82 °FPassing clouds.2 mph89%29.89 "HgN/A
2:00 AM84 °FPassing clouds.5 mph84%29.89 "HgN/A
1:00 AM84 °FPassing clouds.8 mph84%29.92 "HgN/A
12:00 AM84 °FPassing clouds.7 mph84%29.92 "HgN/A
11:00 PM
Thu, May 21
84 °FThunderstorms. Passing clouds.9 mph84%29.95 "HgN/A
10:00 PM84 °FThunderstorms. Passing clouds.10 mph84%29.95 "HgN/A
9:00 PM84 °FThunderstorms. Passing clouds.8 mph84%29.95 "HgN/A
8:00 PM86 °FPassing clouds.8 mph79%29.92 "HgN/A
7:00 PM86 °FPassing clouds.7 mph75%29.92 "HgN/A
Weather by CustomWeather, © 2015

See weather overviewHow to use our weather pages